Location: GMARS
(34.2910°N, 116.3838°W)
Time: 09:40:59
(UTC-07:00)

Daily predictions for brighter satellites

Satellite Brightness Start Highest point End
(mag) Time Altitude Azimuth Time Altitude Azimuth Time Altitude Azimuth
USA 186 1.6 20:17:53 10° SSE 20:20:22 46° ENE 20:23:04 10° N
ISS -3.7 20:17:59 10° SW 20:21:13 78° NW 20:24:28 10° NE
Cosmos 1892 3.2 20:17:57 10° SSE 20:21:32 39° E 20:25:08 10° NNE
CZ-2D R/B 3.3 20:20:00 10° S 20:23:53 85° WSW 20:27:47 10° NNW
Tsikada Rocket 4.0 20:18:13 10° S 20:24:25 73° E 20:30:35 10° N
Cosmos 1943 Rocket 3.2 20:27:19 10° SSE 20:31:41 24° ESE 20:36:02 10° NE
Tiangong 2 2.5 20:29:38 10° NW 20:32:35 32° NNE 20:35:31 10° E
NOSS 3-2 (C) 3.9 20:29:21 10° SW 20:35:13 67° WNW 20:41:38 10° NNE
Cosmos 2034 Rocket 4.1 20:31:16 10° N 20:37:26 80° W 20:43:34 10° S
Cosmos 2344 4.3 20:32:20 10° SSE 20:38:46 29° ESE 20:45:17 10° NE
Envisat 3.0 20:34:49 10° SSE 20:39:51 71° ENE 20:44:54 10° N
Cosmos 2242 Rocket 4.3 20:37:15 10° NNW 20:41:38 56° W 20:45:56 10° S
Cosmos 990 Rocket 4.3 20:37:55 10° SSW 20:43:04 70° WNW 20:48:18 10° NNE
CZ-4B DEB 4.2 20:41:44 15° ESE 20:43:06 19° ENE 20:45:16 10° NNE
Cosmos 1634 Rocket 4.4 20:39:33 10° N 20:45:32 44° E 20:51:18 11° SSE
Cosmos 1933 Rocket 4.4 20:41:45 10° SSW 20:45:58 52° W 20:50:13 10° N
Helios 1A 3.5 20:42:20 12° SE 20:45:59 42° ENE 20:49:57 10° N
CENTAUR R/B 2.6 20:43:47 10° S 20:49:21 50° ESE 20:55:36 10° NE
Molniya-1 2.4 20:47:29 10° SW 20:49:30 74° NW 20:51:09 10° NNE
COSMOS 2455 2.8 20:44:47 10° SSW 20:50:47 88° ESE 20:56:50 10° NNE
Cosmos 2369 Rocket 2.1 20:47:42 10° SSW 20:53:18 74° ESE 20:58:59 10° NNE
Cosmos 1862 Rocket 4.1 20:49:14 10° NNW 20:53:39 62° W 20:58:04 10° S
Resurs 01 Rocket 2.9 20:49:37 10° S 20:53:47 41° W 20:57:58 10° NNW
OAO 2 Rocket 3.9 20:49:04 10° W 20:53:54 46° SSW 20:57:22 18° SE
Cosmos 1125 Rocket 3.9 20:49:09 10° S 20:54:00 40° ESE 20:58:52 10° NNE
Shenzhou-11 Module 2.3 20:52:42 10° NW 20:55:44 57° NNE 20:57:31 22° E
Milstar 3 4.0 20:43:02 10° WSW 20:56:20 47° SSE 21:03:20 13° E
Lacrosse 5 rocket 1.5 20:53:30 10° SW 20:57:01 61° NW 21:00:35 10° NNE
Cosmos 1606 4.2 20:55:06 10° NNE 20:57:55 20° ENE 20:58:52 18° E
YAOGAN 6 2.7 20:58:22 17° SSE 21:01:00 58° ENE 21:04:38 10° N
Cosmos 1346 Rocket 2.7 20:57:27 10° N 21:01:27 86° E 21:05:00 13° S
Cosmos 1939 Rocket 3.0 21:00:52 10° S 21:04:59 80° W 21:09:07 10° NNW
Delta 168 4.2 21:04:50 10° SW 21:07:49 23° S 21:08:58 21° SSE
OE (NEXTSAT) 4.3 21:07:00 10° WNW 21:10:33 78° SW 21:12:03 32° SE
SL-19 R/B 4.5 21:05:51 10° SSE 21:11:31 81° WSW 21:17:35 10° NNW
Delta 7925 Rocket 4.5 21:08:16 10° SW 21:12:15 25° SSE 21:13:27 23° SE
GPS 2-04 Rocket1 2.6 21:10:50 10° W 21:14:34 70° N 21:16:29 25° E
Okean 1-7 3.2 21:13:20 10° N 21:17:40 54° E 21:19:40 29° SE
Cosmos 2279 Rocket 4.3 21:13:15 10° N 21:19:16 47° E 21:22:38 25° SE
ATLAS 5 CENTAUR R/B 3.5 21:14:01 10° N 21:19:19 30° NE 21:22:41 20° E
Meteor 1-29 3.3 21:19:22 10° N 21:22:49 65° WNW 21:26:15 10° SSW
Aureole 3 2.6 21:21:59 26° S 21:23:37 85° W 21:26:35 10° N
H-2A R/B 3.3 21:22:47 22° E 21:24:30 26° ENE 21:28:51 10° NNE
Meteor 1-10 Rocket 4.5 21:18:58 10° N 21:24:49 57° E 21:27:56 27° SSE
Cosmos 2142 Rocket 4.4 21:20:32 10° N 21:26:40 86° E 21:31:22 18° S
Cosmos 1408 2.4 21:26:50 31° S 21:28:30 77° E 21:32:14 10° N
Cosmos 1656 Rocket 4.2 21:29:16 31° ESE 21:30:07 32° ESE 21:34:57 10° NE
Cosmos 1703 Rocket 3.8 21:26:28 10° NNW 21:30:50 66° W 21:33:41 21° S
Cosmos 158 Rocket 4.3 21:26:30 10° N 21:31:09 43° ENE 21:32:34 34° ESE
ARGOS 3.5 21:29:08 30° ESE 21:31:15 46° ENE 21:36:21 10° N
Meteor 2-6 Rocket 4.4 21:27:29 10° N 21:33:24 62° E 21:36:17 31° SSE
Cosmos 1733 Rocket 3.6 21:38:50 37° E 21:38:50 37° E 21:42:44 10° NNE
Cosmos 1782 2.6 21:35:31 10° N 21:39:31 84° E 21:40:31 49° SSE
Cosmos 1825 2.2 21:38:01 32° SSW 21:39:39 79° W 21:43:26 10° N
DNEPR-1 R/B 4.5 21:35:27 10° SW 21:40:51 58° WNW 21:45:26 10° NNE
ERS-1 Rocket 3.0 21:43:33 33° S 21:45:52 82° WSW 21:50:55 10° NNW
SL-08 RB Rocket 4.1 21:45:10 43° ESE 21:45:59 49° ENE 21:50:29 10° N
Cosmos 2084 3.4 21:50:12 10° NW 21:54:01 59° WSW 21:54:26 55° SSW
Cosmos 1862 3.1 21:55:14 77° SSE 21:55:29 86° E 21:59:27 10° N
Nimbus 7 Rocket 4.3 21:51:44 10° NNE 21:57:34 61° ESE 21:59:17 43° SSE
ISS -0.3 21:57:22 10° NW 21:58:09 11° NNW 21:58:57 10° NNW
Cosmos 1048 Rocket 3.9 21:53:39 10° NNW 21:58:58 84° ENE 22:00:12 54° SSE
Lacrosse 4 Rocket 1.9 21:57:45 10° NNW 22:02:07 49° ENE 22:02:08 49° ENE
MetOp-A 4.4 22:03:35 37° SSW 22:05:38 64° WSW 22:10:57 10° NNW
OAO 3 Copernicus 4.2 22:00:57 10° W 22:05:59 90° S 22:06:59 58° E
Tiangong 2 3.1 22:06:31 10° WNW 22:08:09 25° W 22:08:09 25° W
Terra 2.9 22:12:01 30° ENE 22:12:01 30° ENE 22:15:44 10° N
USA 215 3.3 22:09:49 44° ESE 22:12:02 71° NE 22:18:34 10° NW
Cosmos 1943 Rocket 3.5 22:09:58 10° SW 22:15:08 38° WNW 22:20:18 10° N
Cosmos 1340 3.5 22:15:06 10° NNW 22:18:28 47° WNW 22:18:28 47° WNW
DMSP B5D2-2 3.9 22:14:09 10° NNE 22:19:21 72° ESE 22:19:27 72° ESE
Cosmos 1674 Rocket 4.1 22:15:21 10° N 22:18:42 47° NE 22:18:42 47° NE
Cosmos 2251 Rocket 4.5 22:17:00 10° N 22:21:25 33° ENE 22:21:25 33° ENE
SPOT 1/Viking Rocket 3.4 22:22:10 76° S 22:22:36 89° W 22:27:50 10° NNW
SPOT 5 3.5 22:26:39 49° SW 22:27:40 58° W 22:32:56 10° NNW
H-2A R/B 3.9 22:31:06 21° NE 22:31:06 21° NE 22:32:59 10° NNE
GEOS 3 Rocket 4.3 22:35:54 41° NE 22:36:01 41° NE 22:40:53 10° NNW
Cosmos 1092 Rocket 3.8 22:36:34 67° SSW 22:37:29 87° W 22:43:39 10° N
Nadezhda 4 Rocket 4.4 22:35:52 36° SW 22:38:16 59° W 22:44:21 10° N
Cosmos 1627 Rocket 4.4 22:46:11 71° E 22:46:11 71° E 22:52:20 10° N
Cosmos 1833 4.5 22:42:09 10° NNW 22:47:47 57° WSW 22:47:58 57° WSW
Cosmos 2297 Rocket 4.2 22:56:35 10° NNE 23:00:02 16° NE 23:00:02 16° NE
H-2A ROCKET BODY 4.0 22:57:15 10° WSW 23:29:22 - ESE 22:58:45 22° SW
H-2A R/B 3.3 23:03:26 34° WSW 23:03:41 34° W 23:08:32 10° NNW
ATLAS 5 CENTAUR R/B 3.0 22:58:17 10° NW 23:04:12 46° WSW 23:04:14 46° WSW
Cosmos 1867 4.0 22:58:54 10° NNW 23:03:23 59° N 23:03:23 59° N
Milstar 3 3.9 23:31:31 10° W 23:36:55 35° WSW 23:36:55 35° WSW
Cosmos 1655 Rocket 4.5 23:43:07 55° WNW 23:43:07 55° WNW 23:48:36 10° N
ATLAS CENTAUR R/B 4.2 23:48:33 14° NNW 23:48:33 14° NNW 23:49:47 10° N
CZ-2C R/B 4.1 23:43:29 10° NNE 23:46:00 29° NNE 23:46:00 29° NNE
Terra 4.1 23:50:54 18° WNW 23:50:54 18° WNW 23:52:56 10° NW
Cosmos 2227 Rocket 3.3 23:44:32 10° N 23:48:20 39° NNE 23:48:20 39° NNE
